weather.gov     
National Weather Service

Terminal Aerodrome Forecast
NWS Homepage
This page is being discontinued on March 12, 2014.
The same data is available at this site. Please update your bookmarks.
Thank you, and we apologize for the inconvenience.
Please send an email to SR-SRH.Webmaster@noaa.gov with any concerns.


Current Version
Previous Version:    01  02  03  04  05  06  07  08  09  10  11  12  13  14  15  16  17  18  19  20  21  22  23  
[Printable]
779
FTUS42 KTAE 230500
TAFABY
TAF
KABY 230537Z 2306/2406 08008KT 3SM RA BR BKN012 OVC022
     FM231600 17011G15KT 5SM RA SCT015 BKN030
     FM231800 18012G20KT P6SM VCTS BKN015CB BKN030
      TEMPO 2320/2323 VRB20G30KT 2SM +TSRA
     FM240100 20011KT 4SM -RA BR OVC004=


U.S. Dept. of Commerce
NOAA National Weather Service
1325 East West Highway
Silver Spring, MD 20910
E-mail: w-nws.webmaster@noaa.gov
Page last modified: May 16, 2007
NATIONAL WEATHER SERVICE: for Safety, for Work, for Fun - FOR LIFE